User: anonymous   Login
Location: Unspecified
(0.0000°N, 0.0000°E)
Time: 09:30:10
(UTC+01:00)
Language:

YAOGAN 3 - Orbit

View from above orbital plane
View from above orbital plane
View from above satellite
View from above satellite

Ground track
Ground track

The orbit data is extracted from the following two-line orbital elements,

1 32289U 07055A   14298.82142076  .00001718  00000-0  22287-3 0  7129
2 32289 097.9478 289.8049 0001185 090.1997 269.9347 14.82068671375873
Epoch (UTC): 25 October 2014 19:42:50
Eccentricity: 0.0001185
inclination: 97.9478°
perigee height: 622 km
apogee height: 623 km
right ascension of ascending node: 289.8049°
argument of perigee: 90.1997°
revolutions per day: 14.82068671
mean anomaly at epoch: 269.9347°
orbit number at epoch: 37587

The dashed part of the orbit path shows where the satellite is in the earth's shadow,  

DLR